ELEKTRO-L 3

Last updated on Mon Oct 14 2024 00:02:28 GMT+0000 (Coordinated Universal Time)

1 44903U 19095A 24287.58902701 -.00000099 00000+0 00000+0 0 9996 2 44903 0.0496 350.5724 0001228 247.2880 72.8900 1.00271816 17562
UTC large
Height (km)
Speed (km/s)
/
Latitude / Longitude
Inclination (degrees)
Orbital Period (minutes)
Azimuth
Elevation
Range (km)
Doppler Factor

Next 0 passes for location: London (51.5072 / 0.1276)

Sorry there are no passes over London.